Date String (YYYY-MM-DD hh:mm:ss) UTC,Instrument flags,absolute air pressure of the measurement (hPa),sample flow rate (lpm),inlet stack bypass flow (lpm),air temperature of the measurement (°C),ambient temperature measured by the external sensor (°C),aerosol sample conditioner tube jacket temperature (°C),OPC LED temperature (°C),internal box temperature (°C),relative humidity of the measurement (%),span deviation,mass concentration of particles derived from Lorenz-Mie calculation of OPC scattering (μg/m³),mass concentration of particles derived from Lorenz-Mie calculation of OPC scattering (μg/m³),mass concentration of particles derived from Lorenz-Mie calculation of OPC scattering (μg/m³)
DateTimeUTC,F1_M11,P_M11,Q1_M11,Q2_M11,T1_M11,T2_M11,T3_M11,T4_M11,T5_M11,U1_M11,ZSPAN_M11,X2_M11,X0_M11,X1_M11
2023-07-10 07:00:00,SystemResetWarning,0831.7,5.01,000.00,029.4,028.1,000.0,037.9,031.0,33.0,-001.7,0007.95,0011.47,0007.47
2023-07-10 07:01:00,SystemResetWarning,0831.7,5.01,000.00,029.4,028.2,000.0,037.9,031.0,32.9,-001.7,0007.92,0011.44,0007.45
2023-07-10 07:02:00,SystemResetWarning,0831.7,5.00,000.00,029.5,028.3,000.0,037.9,031.1,32.8,-001.7,0007.88,0011.38,0007.42
2023-07-10 07:03:00,SystemResetWarning,0831.7,5.00,000.00,029.5,028.3,000.0,037.9,031.1,33.0,-001.5,0007.82,0011.32,0007.40
2023-07-10 07:04:00,SystemResetWarning,0831.6,5.00,000.00,029.5,028.4,000.0,038.0,031.1,32.8,-001.6,0007.75,0011.25,0007.36
2023-07-10 07:05:00,SystemResetWarning,0831.6,4.98,000.00,029.5,028.4,000.0,038.0,031.1,32.9,-001.6,0007.72,0011.78,0007.34
2023-07-10 07:06:00,SystemResetWarning,0831.6,5.01,000.00,029.6,028.5,000.0,038.0,031.2,32.7,-001.7,0007.76,0012.40,0007.34
2023-07-10 07:07:00,SystemResetWarning,0831.6,5.00,000.00,029.6,028.5,000.0,038.0,031.2,32.8,-002.1,0007.80,0012.24,0007.34
2023-07-10 07:08:00,SystemResetWarning,0831.6,4.97,000.00,029.6,028.2,000.0,038.0,031.2,32.7,-002.0,0007.81,0012.65,0007.33
2023-07-10 07:09:00,SystemResetWarning,0831.6,5.01,000.00,029.6,026.4,000.0,037.9,031.1,32.6,-001.3,0007.82,0012.71,0007.33
2023-07-10 07:10:00,SystemResetWarning,0831.6,5.02,000.00,029.5,025.4,000.0,037.8,030.9,33.0,-001.2,0007.86,0012.81,0007.33
2023-07-10 07:11:00,SystemResetWarning,0831.6,5.00,000.00,029.4,025.3,000.0,037.8,030.6,33.2,-001.2,0007.88,0012.83,0007.32
2023-07-10 07:12:00,SystemResetWarning,0831.6,5.00,000.00,029.3,025.6,000.0,037.8,030.5,33.6,-001.5,0007.90,0012.87,0007.32
2023-07-10 07:13:00,SystemResetWarning,0831.6,5.00,000.00,029.3,026.0,000.0,037.8,030.5,33.8,-000.0,0007.91,0012.84,0007.33
2023-07-10 07:14:00,SystemResetWarning,0831.5,4.99,000.00,029.3,026.4,000.0,037.8,030.6,33.7,-000.5,0007.93,0012.86,0007.33
2023-07-10 07:15:00,SystemResetWarning,0831.5,5.00,000.00,029.3,026.8,000.0,037.9,030.7,33.7,0000.0,0007.94,0012.83,0007.32
2023-07-10 07:16:00,SystemResetWarning,0831.6,5.00,000.00,029.3,027.1,000.0,037.8,030.7,33.6,0000.0,0007.97,0012.63,0007.33
2023-07-10 07:17:00,SystemResetWarning,0831.5,4.99,000.00,029.3,027.3,000.0,037.9,030.8,33.6,0000.0,0007.96,0011.89,0007.34
2023-07-10 07:18:00,SystemResetWarning,0831.5,4.99,000.00,029.3,027.5,000.0,037.9,030.8,33.3,0000.0,0007.93,0011.76,0007.35
2023-07-10 07:19:00,SystemResetWarning,0831.5,5.00,000.00,029.3,027.7,000.0,037.9,030.9,33.3,-000.1,0007.91,0011.18,0007.35
2023-07-10 07:20:00,SystemResetWarning,0831.5,5.01,000.00,029.3,027.8,000.0,037.9,030.9,33.3,0000.0,0007.93,0011.26,0007.35
2023-07-10 07:21:00,SystemResetWarning,0831.5,5.01,000.00,029.3,027.9,000.0,037.9,030.9,33.4,-000.3,0007.91,0011.99,0007.36
2023-07-10 07:22:00,SystemResetWarning,0831.5,4.98,000.00,029.4,028.0,000.0,037.9,031.0,33.3,-000.1,0007.90,0011.99,0007.36
2023-07-10 07:23:00,SystemResetWarning,0831.5,5.00,000.00,029.4,028.1,000.0,037.9,031.0,33.1,-000.5,0007.92,0012.02,0007.36
2023-07-10 07:24:00,SystemResetWarning,0831.5,5.02,000.00,029.4,028.2,000.0,037.9,031.0,33.1,-000.9,0007.90,0012.00,0007.35
2023-07-10 07:25:00,SystemResetWarning,0831.5,5.00,000.00,029.5,028.2,000.0,037.9,031.1,33.0,-000.1,0007.87,0011.97,0007.34
2023-07-10 07:26:00,SystemResetWarning,0831.5,4.99,000.00,029.5,028.3,000.0,038.0,031.1,32.9,-000.4,0007.88,0012.02,0007.35
2023-07-10 07:27:00,SystemResetWarning,0831.5,4.99,000.00,029.5,028.4,000.0,038.0,031.1,32.7,-001.6,0007.88,0012.07,0007.36
2023-07-10 07:28:00,SystemResetWarning,0831.5,5.01,000.00,029.6,028.4,000.0,038.0,031.2,33.0,-001.5,0007.85,0011.89,0007.34
2023-07-10 07:29:00,SystemResetWarning,0831.5,5.01,000.00,029.6,028.4,000.0,038.0,031.2,33.1,-001.2,0007.81,0011.64,0007.32
2023-07-10 07:30:00,SystemResetWarning,0831.5,4.99,000.00,029.6,028.5,000.0,038.0,031.2,33.1,-001.5,0007.80,0012.01,0007.32
2023-07-10 07:31:00,SystemResetWarning,0831.5,5.00,000.00,029.6,028.5,000.0,038.1,031.2,32.9,-001.2,0007.79,0012.56,0007.32
2023-07-10 07:32:00,SystemResetWarning,0831.4,5.00,000.00,029.7,028.2,000.0,038.1,031.3,32.6,-001.7,0007.80,0012.13,0007.33
2023-07-10 07:33:00,SystemResetWarning,0831.4,4.99,000.00,029.6,026.4,000.0,037.9,031.0,32.5,-002.2,0007.79,0011.92,0007.33
2023-07-10 07:34:00,SystemResetWarning,0831.4,5.01,000.00,029.5,025.3,000.0,037.8,030.8,32.6,-002.9,0007.74,0012.01,0007.32
2023-07-10 07:35:00,SystemResetWarning,0831.4,5.01,000.00,029.4,025.3,000.0,037.8,030.5,32.4,-003.2,0007.75,0012.13,0007.32
2023-07-10 07:36:00,SystemResetWarning,0831.4,5.00,000.00,029.3,025.6,000.0,037.8,030.5,32.9,-003.1,0007.79,0012.23,0007.32
2023-07-10 07:37:00,SystemResetWarning,0831.4,5.00,000.00,029.3,026.0,000.0,037.9,030.5,33.7,-002.8,0007.78,0012.25,0007.32
2023-07-10 07:38:00,SystemResetWarning,0831.4,5.01,000.00,029.3,026.4,000.0,037.9,030.6,34.0,-002.8,0007.76,0012.08,0007.32
2023-07-10 07:39:00,SystemResetWarning,0831.4,5.00,000.00,029.3,026.8,000.0,037.9,030.7,33.6,-003.1,0007.78,0012.15,0007.32
2023-07-10 07:40:00,SystemResetWarning,0831.5,5.00,000.00,029.3,027.1,000.0,037.9,030.7,33.5,-003.0,0007.82,0012.19,0007.34
2023-07-10 07:41:00,SystemResetWarning,0831.4,5.00,000.00,029.3,027.3,000.0,037.8,030.8,33.6,-002.2,0007.81,0011.74,0007.33
2023-07-10 07:42:00,SystemResetWarning,0831.4,5.00,000.00,029.3,027.5,000.0,037.9,030.8,33.4,0000.0,0007.80,0011.23,0007.30
2023-07-10 07:43:00,SystemResetWarning,0831.4,4.98,000.00,029.3,027.7,000.0,037.9,030.8,33.3,-000.6,0007.77,0010.71,0007.29
2023-07-10 07:44:00,SystemResetWarning,0831.4,5.00,000.00,029.3,027.8,000.0,037.9,030.9,33.1,-002.0,0007.80,0010.79,0007.30
2023-07-10 07:45:00,SystemResetWarning,0831.4,5.01,000.00,029.3,027.9,000.0,037.9,030.9,32.7,-001.3,0007.81,0010.67,0007.33
2023-07-10 07:46:00,SystemResetWarning,0831.4,5.00,000.00,029.4,028.0,000.0,037.9,030.9,32.4,-000.5,0007.83,0010.55,0007.34
2023-07-10 07:47:00,SystemResetWarning,0831.4,4.98,000.00,029.4,028.1,000.0,037.9,031.0,32.5,0000.0,0007.82,0010.49,0007.35
2023-07-10 07:48:00,SystemResetWarning,0831.3,5.00,000.00,029.4,028.2,000.0,037.9,031.0,32.5,0000.0,0007.84,0010.44,0007.34
2023-07-10 07:49:00,SystemResetWarning,0831.4,5.00,000.00,029.5,028.2,000.0,037.9,031.0,32.2,0000.0,0007.87,0010.52,0007.33
2023-07-10 07:50:00,SystemResetWarning,0831.4,5.01,000.00,029.5,028.3,000.0,037.9,031.1,32.0,0000.0,0007.84,0010.48,0007.32
2023-07-10 07:51:00,SystemResetWarning,0831.4,5.01,000.00,029.5,028.3,000.0,038.0,031.1,32.1,0000.0,0007.83,0010.62,0007.32
2023-07-10 07:52:00,SystemResetWarning,0831.4,5.00,000.00,029.5,028.4,000.0,038.0,031.1,32.0,0000.0,0007.86,0010.99,0007.33
2023-07-10 07:53:00,SystemResetWarning,0831.4,5.00,000.00,029.6,028.4,000.0,038.0,031.2,32.0,0000.0,0007.86,0011.03,0007.33
2023-07-10 07:54:00,SystemResetWarning,0831.4,4.99,000.00,029.6,028.4,000.0,038.0,031.2,32.0,0000.0,0007.85,0011.03,0007.32
2023-07-10 07:55:00,SystemResetWarning,0831.4,5.01,000.00,029.6,028.5,000.0,038.1,031.2,32.1,0000.0,0007.82,0010.97,0007.30
2023-07-10 07:56:00,SystemResetWarning,0831.4,5.00,000.00,029.7,028.5,000.0,038.1,031.3,31.9,0000.0,0007.82,0011.00,0007.27
2023-07-10 07:57:00,SystemResetWarning,0831.4,5.01,000.00,029.7,028.5,000.0,038.1,031.3,31.8,0000.0,0007.80,0010.98,0007.24
2023-07-10 07:58:00,SystemResetWarning,0831.3,5.01,000.00,029.7,028.5,000.0,038.1,031.3,31.8,0000.0,0007.81,0011.03,0007.23
2023-07-10 07:59:00,SystemResetWarning,0831.3,4.98,000.00,029.7,027.8,000.0,038.1,031.3,31.7,0000.0,0007.81,0011.59,0007.23
